Weather History for Paris / Charles De Gaulle, France

Change the Weather History Date:

Wednesday, February 6, 2013

  Actual Average Record
Temperature  
Mean Temperature 40 °F -  
Max Temperature 44 °F 46 °F 59 °F (2004)
Min Temperature 35 °F 35 °F 21 °F (2012)
Degree Days  
Heating Degree Days 24    
Moisture  
Dew Point 34 °F    
Average Humidity 81    
Maximum Humidity 93    
Minimum Humidity 57    
Precipitation  
Precipitation 0.00 in - - ()
Sea Level Pressure  
Sea Level Pressure 29.58 in    
Wind  
Wind Speed 16 mph ()    
Max Wind Speed 23 mph    
Max Gust Speed 34 mph    
Visibility 5.9 miles    
Events Rain , Snow    
Averages and records for this station are not official NWS values.
T = Trace of Precipitation, MM = Missing Value Source: Averaged Metar Reports

Daily Weather History Graph

Daily Weather History Graph

Search for Another Location

Airport:

Trip Planner

Search our weather history database for the weather conditions in past years. The results will help you decide how hot, cold, wet, or windy it might be!

Date:

Astronomy

Feb. 06, 2013 Rise Set
Actual Time 8:13 AM CET 5:55 PM CET
Civil Twilight 7:39 AM CET 6:29 PM CET
Nautical Twilight 7:01 AM CET 7:06 PM CET
Astronomical Twilight 6:25 AM CET 7:43 PM CET
Moon 4:52 AM CET (2/6) 1:47 PM CET (2/6)
Length of Visible Light 10h 49m
Length of Day
9h 42m
Waning Crescent, 19% of the Moon is Illuminated
Feb 6
Waning Crescent
Feb 10
New
Feb 17
First Quarter
Feb 25
Full
Mar 4
Last Quarter

Hourly Weather History & Observations

Time (CET) Temp. Windchill Dew Point Humidity Pressure Visibility Wind Dir Wind Speed Gust Speed Precip Events Conditions
12:00 AM 37.4 °F 27.2 °F 32.0 °F 81% 29.53 in 6.2 mi SSW 19.6 mph - N/A   Mostly Cloudy
12:30 AM 37.4 °F 27.5 °F 32.0 °F 81% 29.50 in 6.2 mi SSW 18.4 mph - N/A   Mostly Cloudy
1:00 AM 37.4 °F 27.2 °F 32.0 °F 81% 29.50 in 6.2 mi SSW 19.6 mph - N/A Rain Light Rain
1:30 AM 37.4 °F 27.5 °F 33.8 °F 87% 29.47 in 4.3 mi SW 18.4 mph - N/A Rain Light Rain
2:00 AM 37.4 °F 27.5 °F 33.8 °F 87% 29.44 in 3.7 mi SW 18.4 mph - N/A Rain , Snow Light Rain
2:13 AM 37.4 °F 27.2 °F 33.8 °F 87% 29.44 in 6.2 mi SW 19.6 mph - N/A Rain Light Rain
2:30 AM 37.4 °F 26.9 °F 35.6 °F 93% 29.44 in 6.2 mi WSW 20.7 mph - N/A Rain Light Rain
3:00 AM 37.4 °F 27.2 °F 35.6 °F 93% 29.42 in 6.2 mi WSW 19.6 mph - N/A   Mostly Cloudy
3:30 AM 39.2 °F 30.2 °F 35.6 °F 87% 29.42 in 6.2 mi WSW 17.3 mph - N/A   Mostly Cloudy
4:00 AM 39.2 °F 30.5 °F 35.6 °F 87% 29.42 in 6.2 mi WSW 16.1 mph - N/A   Mostly Cloudy
4:30 AM 39.2 °F 30.8 °F 37.4 °F 93% 29.39 in 5.6 mi WSW 15.0 mph - N/A Rain Light Rain
5:00 AM 39.2 °F 33.6 °F 37.4 °F 93% 29.39 in 2.5 mi West 8.1 mph - N/A Rain Rain
5:30 AM 39.2 °F 32.0 °F 37.4 °F 93% 29.39 in 6.2 mi West 11.5 mph - N/A Rain Light Rain
6:00 AM 39.2 °F 31.2 °F 35.6 °F 87% 29.42 in 5.0 mi NW 13.8 mph - N/A Rain Light Rain
6:09 AM 37.4 °F 30.3 °F 35.6 °F 93% 29.42 in 6.2 mi WNW 10.4 mph - N/A   Mostly Cloudy
6:30 AM 37.4 °F 30.8 °F 35.6 °F 93% 29.42 in 6.2 mi WNW 9.2 mph - N/A   Mostly Cloudy
7:00 AM 39.2 °F 31.6 °F 37.4 °F 93% 29.42 in 6.2 mi WNW 12.7 mph - N/A Rain Light Rain
7:30 AM 39.2 °F 33.6 °F 35.6 °F 87% 29.42 in 6.2 mi WNW 8.1 mph - N/A Rain Light Rain
8:00 AM 37.4 °F 27.8 °F 35.6 °F 93% 29.44 in 3.7 mi NW 17.3 mph - N/A Rain Rain
8:30 AM 37.4 °F 29.3 °F 35.6 °F 93% 29.44 in 6.2 mi NW 12.7 mph - N/A   Scattered Clouds
9:00 AM 37.4 °F 29.3 °F 35.6 °F 93% 29.44 in 6.2 mi NW 12.7 mph - N/A   Partly Cloudy
9:30 AM 37.4 °F 29.8 °F 35.6 °F 93% 29.47 in 6.2 mi WNW 11.5 mph - N/A   Mostly Cloudy
10:00 AM 39.2 °F 30.8 °F 35.6 °F 87% 29.47 in 6.2 mi NW 15.0 mph - N/A Rain Light Rain Showers
10:30 AM 41.0 °F 32.5 °F 37.4 °F 87% 29.50 in 6.2 mi NNW 17.3 mph - N/A   Mostly Cloudy
11:00 AM 41.0 °F 31.9 °F 35.6 °F 81% 29.53 in 6.2 mi North 19.6 mph - N/A   Scattered Clouds
11:30 AM 41.0 °F 31.9 °F 32.0 °F 70% 29.53 in 6.2 mi North 19.6 mph - N/A   Scattered Clouds
12:00 PM 41.0 °F 32.2 °F 30.2 °F 65% 29.56 in 6.2 mi Variable 18.4 mph - N/A   Mostly Cloudy
12:30 PM 41.0 °F 31.4 °F 32.0 °F 70% 29.59 in 6.2 mi Variable 21.9 mph - N/A   Mostly Cloudy
1:00 PM 41.0 °F 31.4 °F 32.0 °F 70% 29.59 in 6.2 mi North 21.9 mph 34.5 mph N/A   Scattered Clouds
1:30 PM 42.8 °F 34.0 °F 30.2 °F 61% 29.62 in 6.2 mi Variable 20.7 mph - N/A   Scattered Clouds
2:00 PM 42.8 °F 34.0 °F 28.4 °F 57% 29.62 in 6.2 mi Variable 20.7 mph - N/A   Scattered Clouds
2:30 PM 41.0 °F 31.9 °F 28.4 °F 61% 29.65 in 6.2 mi Variable 19.6 mph - N/A   Scattered Clouds
3:00 PM 44.6 °F 35.9 °F 30.2 °F 57% 29.65 in 6.2 mi Variable 23.0 mph - N/A   Scattered Clouds
3:30 PM 42.8 °F 34.8 °F 30.2 °F 61% 29.68 in 6.2 mi NNW 17.3 mph - N/A   Scattered Clouds
4:00 PM 42.8 °F 33.8 °F 30.2 °F 61% 29.68 in 6.2 mi North 21.9 mph - N/A   Scattered Clouds
4:30 PM 42.8 °F 34.0 °F 30.2 °F 61% 29.71 in 6.2 mi NNW 20.7 mph - N/A   Mostly Cloudy
5:00 PM 42.8 °F 33.8 °F 30.2 °F 61% 29.71 in 6.2 mi NNW 21.9 mph - N/A   Mostly Cloudy
5:30 PM 41.0 °F 32.8 °F 30.2 °F 65% 29.71 in 6.2 mi NNW 16.1 mph - N/A   Scattered Clouds
6:00 PM 41.0 °F 31.9 °F 32.0 °F 70% 29.74 in 6.2 mi NNW 19.6 mph - N/A   Scattered Clouds
6:30 PM 39.2 °F 30.5 °F 33.8 °F 81% 29.74 in 2.5 mi NW 16.1 mph - N/A Rain Light Rain Showers
7:00 PM 39.2 °F 30.8 °F 35.6 °F 87% 29.77 in 6.2 mi NNW 15.0 mph - N/A   Scattered Clouds
7:30 PM 39.2 °F 29.8 °F 33.8 °F 81% 29.77 in 6.2 mi NNW 18.4 mph - N/A Rain Light Rain Showers
8:00 PM 37.4 °F 29.8 °F 33.8 °F 87% 29.77 in 6.2 mi NW 11.5 mph - N/A   Mostly Cloudy
8:30 PM 39.2 °F 29.6 °F 33.8 °F 81% 29.77 in 6.2 mi NNW 19.6 mph - N/A   Mostly Cloudy
9:00 PM 39.2 °F 29.8 °F 33.8 °F 81% 29.80 in 6.2 mi NNW 18.4 mph - N/A Rain Light Rain Showers
9:30 PM 39.2 °F 29.6 °F 33.8 °F 81% 29.80 in 6.2 mi NNW 19.6 mph - N/A Rain Light Rain
10:00 PM 37.4 °F 27.2 °F 32.0 °F 81% 29.80 in 6.2 mi NNW 19.6 mph - N/A   Mostly Cloudy
10:30 PM 37.4 °F 27.2 °F 32.0 °F 81% 29.83 in 6.2 mi North 19.6 mph - N/A   Mostly Cloudy
11:00 PM 37.4 °F 27.5 °F 32.0 °F 81% 29.86 in 6.2 mi North 18.4 mph - N/A   Mostly Cloudy
11:30 PM 35.6 °F 25.9 °F 33.8 °F 93% 29.86 in 6.2 mi North 16.1 mph - N/A Rain Light Rain